Corsicana, TX

10:14 PM CST on November 22, 2017 (GMT -0600)
Campbell-Corsicana Municipal

Weather History for KCRS - October, 2012

Change the Weather History Date:

Thursday, October 4, 2012

  Actual Average (KTYR) Record (KTYR)
Temperature  
Mean Temperature 76 °F -  
Max Temperature 88 °F 78 °F 97 °F (1911)
Min Temperature 64 °F 58 °F 33 °F (1975)
Cooling Degree Days 11    
Growing Degree Days 26 (Base 50)    
Moisture  
Dew Point 63 °F    
Average Humidity 67    
Maximum Humidity 87    
Minimum Humidity 48    
Precipitation  
Precipitation 0.00 in - - ()
Sea Level Pressure  
Sea Level Pressure 30.09 in    
Wind  
Wind Speed 10 mph (SSE)    
Max Wind Speed 16 mph    
Max Gust Speed 24 mph    
Visibility 10 miles    
Events      
Averages and records for this station are not official NWS values.
T = Trace of Precipitation, MM = Missing Value Source: NWS Daily Summary

Daily Weather History Graph

Daily Weather History Graph

Search for Another Location

Airport or City:

Trip Planner

Search our weather history database for the weather conditions in past years. The results will help you decide how hot, cold, wet, or windy it might be!

Date:

Astronomy

Oct. 04, 2012 Rise Set
Actual Time 7:21 AM CDT 7:05 PM CDT
Civil Twilight 6:57 AM CDT 7:30 PM CDT
Nautical Twilight 6:29 AM CDT 7:58 PM CDT
Astronomical Twilight 6:00 AM CDT 8:26 PM CDT
Moon 9:58 PM CDT (10/4) 11:24 AM CDT (10/4)
Length of Visible Light 12h 32m
Length of Day
11h 44m
Waning Gibbous, 82% of the Moon is Illuminated
Oct 4
Waning Gibbous
Oct 8
Last Quarter
Oct 15
New
Oct 21
First Quarter
Oct 29
Full

Hourly Weather History & Observations

Time (CDT) Temp. Heat Index Dew Point Humidity Pressure Visibility Wind Dir Wind Speed Gust Speed Precip Events Conditions
12:53 AM 69.1 °F - 55.9 °F 63% 30.04 in 10.0 mi SSE 10.4 mph - N/A   Clear
1:53 AM 66.9 °F - 57.9 °F 73% 30.04 in 10.0 mi SSE 10.4 mph - N/A   Clear
2:53 AM 66.0 °F - 60.1 °F 81% 30.05 in 10.0 mi SSE 8.1 mph - N/A   Clear
3:53 AM 64.9 °F - 60.1 °F 84% 30.06 in 9.0 mi SSE 4.6 mph - N/A   Clear
4:53 AM 66.0 °F - 61.0 °F 84% 30.07 in 9.0 mi SSE 6.9 mph - N/A   Clear
5:53 AM 64.9 °F - 61.0 °F 87% 30.09 in 9.0 mi SSE 8.1 mph - N/A   Clear
6:53 AM 66.0 °F - 61.0 °F 84% 30.10 in 10.0 mi SSE 9.2 mph - N/A   Clear
7:12 AM 66.2 °F - 60.8 °F 83% 30.11 in 10.0 mi SSE 9.2 mph - N/A   Mostly Cloudy
7:36 AM 66.2 °F - 60.8 °F 83% 30.11 in 9.0 mi SSE 10.4 mph - N/A   Scattered Clouds
7:53 AM 66.9 °F - 61.0 °F 81% 30.10 in 9.0 mi SE 10.4 mph - N/A   Partly Cloudy
8:53 AM 71.1 °F - 61.0 °F 70% 30.11 in 10.0 mi SSE 12.7 mph - N/A   Mostly Cloudy
9:06 AM 71.6 °F - 60.8 °F 69% 30.13 in 10.0 mi SSE 12.7 mph - N/A   Scattered Clouds
9:53 AM 75.0 °F - 61.0 °F 62% 30.12 in 10.0 mi SE 13.8 mph - N/A   Clear
10:53 AM 79.0 °F - 64.0 °F 60% 30.12 in 10.0 mi SE 15.0 mph 21.9 mph N/A   Clear
11:53 AM 82.9 °F 85.0 °F 66.0 °F 56% 30.12 in 10.0 mi SSE 16.1 mph 24.2 mph N/A   Clear
12:53 PM 84.0 °F 86.3 °F 66.0 °F 55% 30.12 in 10.0 mi SE 11.5 mph - N/A   Clear
1:53 PM 86.0 °F 88.2 °F 66.0 °F 51% 30.10 in 10.0 mi SE 10.4 mph - N/A   Partly Cloudy
2:53 PM 88.0 °F 90.3 °F 66.0 °F 48% 30.08 in 10.0 mi South 10.4 mph - N/A   Scattered Clouds
3:53 PM 86.0 °F 87.6 °F 64.9 °F 49% 30.06 in 10.0 mi SE 12.7 mph - N/A   Mostly Cloudy
5:53 PM 86.0 °F 87.6 °F 64.9 °F 49% 30.05 in 10.0 mi SE 15.0 mph - N/A   Scattered Clouds
6:53 PM 82.9 °F 85.0 °F 66.0 °F 56% 30.06 in 10.0 mi ESE 8.1 mph - N/A   Overcast
7:53 PM 81.0 °F 83.0 °F 66.0 °F 60% 30.07 in 10.0 mi SE 6.9 mph - N/A   Mostly Cloudy
8:53 PM 80.1 °F 81.9 °F 64.9 °F 60% 30.07 in 10.0 mi SE 9.2 mph - N/A   Overcast
9:53 PM 79.0 °F - 64.9 °F 62% 30.09 in 10.0 mi SE 11.5 mph - N/A   Mostly Cloudy
10:53 PM 77.0 °F - 64.0 °F 64% 30.09 in 10.0 mi SSE 13.8 mph - N/A   Partly Cloudy
11:53 PM 75.9 °F - 64.9 °F 69% 30.08 in 10.0 mi South 10.4 mph - N/A   Clear